KF6ILA Weather Reports


time (UTC)temp
F
wind
direction
speed
knots
gust
knots
rain 1hr
in
rain 24hr
in
rain mn
in
humidity
%
barometer
mb
20260904223651 77 254 12.2 18.2 0.00 0.00 0.00 35 1014.4
20260904223154 77 261 8.7 18.2 0.00 0.00 0.00 35 1014.3
20260904222200 78 270 12.2 19.1 0.00 0.00 0.00 33 1014.5
20260904220709 77 261 11.3 16.5 0.00 0.00 0.00 32 1014.8
20260904220212 77 214 10.4 16.5 0.00 0.00 0.00 32 1014.9
20260904215218 78 262 10.4 17.4 0.00 0.00 0.00 31 1015.0
20260904214223 78 256 10.4 19.1 0.00 0.00 0.00 30 1015.1
20260904213726 78 226 9.6 19.1 0.00 0.00 0.00 31 1015.2
20260904213230 78 243 7.8 13.9 0.00 0.00 0.00 28 1015.4
20260904212733 78 263 8.7 15.6 0.00 0.00 0.00 30 1015.3
20260904211739 78 253 10.4 19.1 0.00 0.00 0.00 29 1015.3
20260904211242 78 266 11.3 17.4 0.00 0.00 0.00 29 1015.2
20260904210745 77 252 7.0 21.7 0.00 0.00 0.00 30 1015.2
20260904210248 77 248 8.7 21.7 0.00 0.00 0.00 30 1015.2
20260904205751 77 224 11.3 19.1 0.00 0.00 0.00 29 1015.2
20260904203803 77 231 7.8 18.2 0.00 0.00 0.00 27 1015.3
20260904203307 77 232 12.2 17.4 0.00 0.00 0.00 27 1014.4
20260904202809 77 260 11.3 16.5 0.00 0.00 0.00 26 1014.4
20260904202312 77 243 7.8 14.8 0.00 0.00 0.00 26 1014.4
20260904200324 76 273 11.3 17.4 0.00 0.00 0.00 25 1014.6
20260904195827 76 276 9.6 15.6 0.00 0.00 0.00 25 1014.6
20260904195330 76 238 7.8 17.4 0.00 0.00 0.00 25 1014.7
20260904193839 77 274 10.4 16.5 0.00 0.00 0.00 25 1014.7
20260904193342 77 247 9.6 17.4 0.00 0.00 0.00 26 1014.7
20260904192845 77 233 10.4 18.2 0.00 0.00 0.00 25 1014.7
20260904191851 76 278 10.4 20.0 0.00 0.00 0.00 27 1014.7
20260904185903 75 277 9.6 16.5 0.00 0.00 0.00 28 1015.0
20260904182424 74 257 8.7 13.9 0.00 0.00 0.00 28 1015.0
20260904173951 72 237 5.2 16.5 0.00 0.00 0.00 29 1015.1
20260904173454 71 270 10.4 16.5 0.00 0.00 0.00 29 1015.0
20260904172500 71 262 7.0 16.5 0.00 0.00 0.00 27 1015.1
20260904165518 70 245 7.8 15.6 0.00 0.00 0.00 24 1014.9
20260904165021 69 266 9.6 15.6 0.00 0.00 0.00 21 1014.8
20260904164027 69 271 10.4 15.6 0.00 0.00 0.00 21 1014.7
20260904163033 68 274 7.8 13.9 0.00 0.00 0.00 18 1014.6
20260904161542 67 270 10.4 14.8 0.00 0.00 0.00 14 1014.4
20260904161045 67 275 10.4 14.8 0.00 0.00 0.00 14 1014.2
20260904160548 67 278 11.3 14.8 0.00 0.00 0.00 13 1014.3
20260904155057 66 260 7.8 14.8 0.00 0.00 0.00 15 1014.1
20260904153109 64 251 7.8 13.0 0.00 0.00 0.00 15 1013.9
20260904152115 64 262 9.6 13.0 0.00 0.00 0.00 15 1013.7
20260904151618 64 247 7.8 12.2 0.00 0.00 0.00 16 1013.8
20260904150624 63 251 7.8 12.2 0.00 0.00 0.00 18 1013.7
20260904145630 62 247 7.8 13.0 0.00 0.00 0.00 18 1013.6
20260904145133 62 253 7.8 13.0 0.00 0.00 0.00 19 1013.7
20260904144139 61 255 6.1 13.0 0.00 0.00 0.00 20 1013.7
20260904143145 61 249 7.8 14.8 0.00 0.00 0.00 19 1013.6
20260904141654 60 248 11.3 16.5 0.00 0.00 0.00 20 1013.2
20260904135209 58 258 9.6 15.6 0.00 0.00 0.00 28 1013.0
20260904134215 58 252 11.3 17.4 0.00 0.00 0.00 32 1012.7
20260904133718 58 250 11.3 17.4 0.00 0.00 0.00 32 1012.6
20260904132724 58 248 12.2 19.1 0.00 0.00 0.00 34 1012.4
20260904131233 58 259 14.8 19.1 0.00 0.00 0.00 34 1012.1
20260904124748 58 262 13.9 17.4 0.00 0.00 0.00 37 1011.8
20260904123754 57 260 12.2 18.2 0.00 0.00 0.00 38 1011.9
20260904122800 58 263 13.0 18.2 0.00 0.00 0.00 38 1011.8
20260904122306 58 259 11.3 17.4 0.00 0.00 0.00 38 1011.8
20260904121806 58 257 11.3 17.4 0.00 0.00 0.00 38 1011.8
20260904121309 57 261 11.3 17.4 0.00 0.00 0.00 39 1011.8
20260904115818 57 258 12.2 19.1 0.00 0.00 0.00 44 1011.6
20260904115321 57 262 13.0 20.0 0.00 0.00 0.00 46 1011.7
20260904114824 57 266 13.9 20.0 0.00 0.00 0.00 47 1011.6
20260904113830 57 257 12.2 20.0 0.00 0.00 0.00 49 1011.7
20260904113333 57 268 13.9 20.0 0.00 0.00 0.00 50 1011.8
20260904112836 56 262 12.2 19.1 0.00 0.00 0.00 51 1011.8
20260904112339 56 260 12.2 0.0 0.00 0.00 0.00 52 1011.8
20260904110848 56 268 13.0 18.2 0.00 0.00 0.00 53 1011.9
20260904105854 56 267 12.2 18.2 0.00 0.00 0.00 53 1011.7
20260904105357 57 268 12.2 20.0 0.00 0.00 0.00 52 1011.7
20260904104900 57 270 12.2 20.0 0.00 0.00 0.00 50 1011.8
20260904104403 57 265 12.2 20.0 0.00 0.00 0.00 51 1011.8
20260904103906 57 267 12.2 20.0 0.00 0.00 0.00 50 1011.7
20260904103409 57 267 12.2 18.2 0.00 0.00 0.00 50 1011.6
20260904102912 57 264 12.2 19.1 0.00 0.00 0.00 50 1011.6
20260904102415 57 269 12.2 19.1 0.00 0.00 0.00 50 1011.7
20260904101918 57 270 13.0 19.1 0.00 0.00 0.00 50 1011.6
20260904100924 58 269 11.3 19.1 0.00 0.00 0.00 47 1011.7
20260904100427 57 273 13.0 19.1 0.00 0.00 0.00 48 1011.5
20260904095930 57 271 11.3 20.0 0.00 0.00 0.00 48 1011.5
20260904095433 58 265 12.2 20.0 0.00 0.00 0.00 49 1011.5
20260904094936 58 269 13.9 19.1 0.00 0.00 0.00 46 1011.6
20260904093942 58 272 13.9 20.9 0.00 0.00 0.00 45 1011.5
20260904092948 59 271 13.9 20.9 0.00 0.00 0.00 44 1011.5
20260904092451 59 268 13.9 22.6 0.00 0.00 0.00 41 1011.6
20260904091954 60 265 13.9 22.6 0.00 0.00 0.00 40 1011.7
20260904090504 59 268 14.8 20.9 0.00 0.00 0.00 39 1011.8
20260904084515 59 270 12.2 19.1 0.00 0.00 0.00 37 1012.1
20260904084018 59 268 12.2 20.0 0.00 0.00 0.00 37 1012.0
20260904083024 60 271 13.9 20.9 0.00 0.00 0.00 36 1012.1
20260904082527 60 272 13.9 20.9 0.00 0.00 0.00 34 1012.0
20260904081533 60 263 13.0 19.1 0.00 0.00 0.00 31 1012.3
20260904081036 60 256 13.0 20.0 0.00 0.00 0.00 30 1012.3
20260904080042 60 259 13.0 18.2 0.00 0.00 0.00 30 1012.3
20260904075048 60 250 12.2 20.9 0.00 0.00 0.00 31 1012.4
20260904074551 60 252 13.0 20.9 0.00 0.00 0.00 31 1012.5
20260904074054 60 253 14.8 20.9 0.00 0.00 0.00 31 1012.4
20260904073557 60 255 13.9 19.1 0.00 0.00 0.00 32 1012.5
20260904073100 60 252 13.0 19.1 0.00 0.00 0.00 30 1012.6
20260904072106 61 256 13.0 20.0 0.00 0.00 0.00 25 1012.7
20260904071609 61 255 13.0 20.0 0.00 0.00 0.00 23 1012.7
20260904071112 61 252 14.8 20.0 0.00 0.00 0.00 22 1012.7
20260904070615 61 253 13.0 19.1 0.00 0.00 0.00 21 1012.7
20260904070118 61 255 13.0 18.2 0.00 0.00 0.00 20 1012.7
20260904065621 61 254 12.2 20.0 0.00 0.00 0.00 19 1012.7
20260904065124 62 253 13.9 20.0 0.00 0.00 0.00 19 1012.6
20260904064627 62 248 13.0 18.2 0.00 0.00 0.00 19 1012.6
20260904064130 62 241 13.0 18.2 0.00 0.00 0.00 19 1012.5
20260904063633 62 250 13.0 18.2 0.00 0.00 0.00 19 1012.5
20260904062639 62 252 12.2 16.5 0.00 0.00 0.00 19 1012.5
20260904062142 62 243 11.3 16.5 0.00 0.00 0.00 20 1012.5
20260904061148 62 248 12.2 17.4 0.00 0.00 0.00 20 1012.5
20260904060154 62 243 10.4 14.8 0.00 0.00 0.00 21 1012.5
20260904055200 62 247 10.4 15.6 0.00 0.00 0.00 21 1012.6
20260904053212 62 249 9.6 15.6 0.00 0.00 0.00 23 1012.7
20260904052715 62 250 10.4 15.6 0.00 0.00 0.00 23 1012.6
20260904052218 62 250 9.6 15.6 0.00 0.00 0.00 23 1012.6
20260904051721 63 251 10.4 15.6 0.00 0.00 0.00 23 1012.5
20260904051224 63 254 11.3 17.4 0.00 0.00 0.00 23 1012.6
20260904050727 63 247 12.2 18.2 0.00 0.00 0.00 23 1012.6
20260904050230 63 249 13.0 20.9 0.00 0.00 0.00 23 1012.5
20260904044739 63 259 13.9 22.6 0.00 0.00 0.00 24 1013.4
20260904043248 63 254 15.6 20.0 0.00 0.00 0.00 24 1013.4
20260904042751 63 251 14.8 20.0 0.00 0.00 0.00 24 1013.3
20260904041757 62 250 12.2 16.5 0.00 0.00 0.00 29 1013.3
20260904041300 61 253 10.4 14.8 0.00 0.00 0.00 32 1013.4
20260904040306 61 249 10.4 15.6 0.00 0.00 0.00 42 1013.4
20260904035312 61 249 10.4 14.8 0.00 0.00 0.00 47 1013.2
20260904034815 61 252 11.3 14.8 0.00 0.00 0.00 52 1013.1
20260904034318 60 248 10.4 15.6 0.00 0.00 0.00 60 1013.0
20260904033821 60 246 11.3 16.5 0.00 0.00 0.00 65 1013.1
20260904033324 60 246 10.4 16.5 0.00 0.00 0.00 69 1012.9
20260904032827 59 246 10.4 14.8 0.00 0.00 0.00 72 1013.0
20260904032330 59 247 9.6 16.5 0.00 0.00 0.00 74 1012.9
20260904031336 59 250 11.3 15.6 0.00 0.00 0.00 79 1012.6
20260904030839 58 254 11.3 14.8 0.00 0.00 0.00 80 1012.6
20260904025348 58 251 10.4 15.6 0.00 0.00 0.00 82 1012.5
20260904024851 58 252 10.4 15.6 0.00 0.00 0.00 82 1012.6
20260904024354 59 253 11.3 15.6 0.00 0.00 0.00 81 1012.5
20260904022406 60 258 13.9 16.5 0.00 0.00 0.00 79 1012.5
20260904021909 60 260 12.2 16.5 0.00 0.00 0.00 78 1012.4
20260904021412 60 249 10.4 16.5 0.00 0.00 0.00 77 1012.6
20260904020915 61 256 12.2 17.4 0.00 0.00 0.00 76 1012.6
20260904020418 61 258 13.0 17.4 0.00 0.00 0.00 75 1012.5
20260904015921 61 255 10.4 18.2 0.00 0.00 0.00 74 1012.6
20260904015424 62 259 13.9 18.2 0.00 0.00 0.00 73 1012.7
20260904014927 63 259 12.2 17.4 0.00 0.00 0.00 71 1012.7
20260904013933 64 260 12.2 19.1 0.00 0.00 0.00 68 1012.7
20260904012939 65 264 13.0 19.1 0.00 0.00 0.00 66 1012.8
20260904012442 65 260 13.0 19.1 0.00 0.00 0.00 65 1012.7
20260904011945 65 263 14.8 19.1 0.00 0.00 0.00 63 1012.8
20260904011448 66 259 14.8 20.0 0.00 0.00 0.00 62 1012.9
20260904010951 66 255 13.0 20.0 0.00 0.00 0.00 61 1012.9
20260904010454 67 261 14.8 20.0 0.00 0.00 0.00 60 1012.8
20260904005957 67 254 13.9 20.9 0.00 0.00 0.00 59 1012.9
20260904003512 69 250 12.2 19.1 0.00 0.00 0.00 55 1012.9
20260904002518 69 256 14.8 20.9 0.00 0.00 0.00 54 1012.9
20260904002021 69 257 15.6 20.9 0.00 0.00 0.00 54 1012.8
20260904001524 69 253 15.6 20.9 0.00 0.00 0.00 53 1012.9
20260904001027 70 251 13.0 20.0 0.00 0.00 0.00 52 1012.8
20260904000530 70 261 13.9 20.9 0.00 0.00 0.00 52
20260903235536 71 252 12.2 20.0 0.00 0.00 0.00 52 1012.8
20260903235039 72 267 13.0 20.9 0.00 0.00 0.00 51 1012.7
20260903234542 72 252 12.2 20.9 0.00 0.00 0.00 51 1012.6
20260903233548 71 247 14.8 20.9 0.00 0.00 0.00 52 1012.9
20260903232553 72 255 16.5 20.9 0.00 0.00 0.00 51 1013.0
20260903232057 72 255 13.0 20.9 0.00 0.00 0.00 49 1013.0
20260903231600 72 252 14.8 21.7 0.00 0.00 0.00 50 1013.0
20260903230606 72 255 14.8 21.7 0.00 0.00 0.00 49 1013.2
20260903230109 72 280 12.2 22.6 0.00 0.00 0.00 52 1013.1
20260903225612 0 258 17.4 22.6 0.00 0.00 0.00
20260903225115 73 261 15.6 21.7 0.00 0.00 0.00 50 1013.2